Weather History for Payson, AZ

Change the Weather History Date:

Thursday, October 13, 2011

  Actual Average Record
Temperature  
Mean Temperature 70 °F -  
Max Temperature 82 °F 74 °F 82 °F (2011)
Min Temperature 57 °F 39 °F 37 °F (2012)
Cooling Degree Days 4    
Growing Degree Days 20 (Base 50)    
Moisture  
Dew Point 27 °F    
Average Humidity 23    
Maximum Humidity 36    
Minimum Humidity 13    
Precipitation  
Precipitation 0.00 in - - ()
Sea Level Pressure  
Sea Level Pressure 30.14 in    
Wind  
Wind Speed 4 mph (SE)    
Max Wind Speed 8 mph    
Max Gust Speed -    
Visibility 10 miles    
Events      
Averages and records for this station are not official NWS values.
T = Trace of Precipitation, MM = Missing Value Source: NWS Daily Summary

Daily Weather History Graph

Daily Weather History Graph

Search for Another Location

Airport:

Trip Planner

Search our weather history database for the weather conditions in past years. The results will help you decide how hot, cold, wet, or windy it might be!

Date:

Astronomy

Oct. 13, 2011 Rise Set
Actual Time 6:28 AM MST 5:53 PM MST
Civil Twilight 6:03 AM MST 6:18 PM MST
Nautical Twilight 5:34 AM MST 6:48 PM MST
Astronomical Twilight 5:05 AM MST 7:17 PM MST
Moon 6:39 PM MST (10/13) 7:57 AM MST (10/13)
Length of Visible Light 12h 15m
Length of Day
11h 24m
Full, 97% of the Moon is Illuminated
Oct 13
Full
Oct 19
Last Quarter
Oct 26
New
Nov 2
First Quarter
Nov 10
Full

Hourly Weather History & Observations

Time (MST) Temp. Dew Point Humidity Pressure Visibility Wind Dir Wind Speed Gust Speed Precip Events Conditions
12:15 AM 57.2 °F 28.4 °F 33% 30.16 in 4.0 mi NE 3.5 mph - N/A   Clear
12:35 AM 57.2 °F 30.2 °F 36% 30.16 in 10.0 mi North 3.5 mph - N/A   Clear
12:55 AM 57.2 °F 30.2 °F 36% 30.16 in 10.0 mi North 5.8 mph - N/A   Clear
1:15 AM 57.2 °F 30.2 °F 36% 30.16 in 10.0 mi NNE 4.6 mph - N/A   Clear
1:35 AM 57.2 °F 28.4 °F 33% 30.17 in 10.0 mi NNE 5.8 mph - N/A   Clear
1:55 AM 57.2 °F 28.4 °F 33% 30.17 in 10.0 mi Calm Calm - N/A   Clear
2:15 AM 57.2 °F 28.4 °F 33% 30.17 in 10.0 mi NE 3.5 mph - N/A   Clear
2:35 AM 57.2 °F 28.4 °F 33% 30.16 in 10.0 mi NNE 4.6 mph - N/A   Clear
2:55 AM 59.0 °F 28.4 °F 31% 30.16 in 10.0 mi Calm Calm - N/A   Clear
3:15 AM 59.0 °F 30.2 °F 34% 30.16 in 10.0 mi NNE 4.6 mph - N/A   Clear
3:55 AM 57.2 °F 30.2 °F 36% 30.15 in 10.0 mi NE 4.6 mph - N/A   Clear
4:15 AM 57.2 °F 30.2 °F 36% 30.15 in 10.0 mi NNE 4.6 mph - N/A   Clear
4:35 AM 57.2 °F 30.2 °F 36% 30.15 in 10.0 mi NE 3.5 mph - N/A   Clear
4:55 AM 57.2 °F 28.4 °F 33% 30.15 in 10.0 mi NE 3.5 mph - N/A   Clear
5:15 AM 59.0 °F 28.4 °F 31% 30.15 in 10.0 mi ENE 3.5 mph - N/A   Clear
5:35 AM 60.8 °F 28.4 °F 29% 30.16 in 10.0 mi Calm Calm - N/A   Clear
5:55 AM 60.8 °F 28.4 °F 29% 30.16 in 10.0 mi Calm Calm - N/A   Clear
6:15 AM 60.8 °F 28.4 °F 29% 30.16 in 10.0 mi Calm Calm - N/A   Clear
6:35 AM 60.8 °F 28.4 °F 29% 30.16 in 10.0 mi East 3.5 mph - N/A   Clear
6:55 AM 60.8 °F 28.4 °F 29% 30.16 in 10.0 mi Calm Calm - N/A   Clear
7:15 AM 60.8 °F 28.4 °F 29% 30.17 in 10.0 mi ESE 3.5 mph - N/A   Clear
7:35 AM 60.8 °F 28.4 °F 29% 30.17 in 10.0 mi Calm Calm - N/A   Clear
7:55 AM 62.6 °F 30.2 °F 30% 30.18 in 10.0 mi ESE 3.5 mph - N/A   Clear
8:15 AM 64.4 °F 28.4 °F 26% 30.18 in 10.0 mi SE 3.5 mph - N/A   Clear
8:35 AM 66.2 °F 28.4 °F 24% 30.18 in 10.0 mi ESE 4.6 mph - N/A   Clear
8:55 AM 68.0 °F 28.4 °F 23% 30.19 in 10.0 mi ESE 4.6 mph - N/A   Clear
9:15 AM 69.8 °F 26.6 °F 20% 30.19 in 10.0 mi ESE 3.5 mph - N/A   Clear
9:35 AM 71.6 °F 28.4 °F 20% 30.19 in 10.0 mi SE 3.5 mph - N/A   Clear
9:55 AM 73.4 °F 26.6 °F 18% 30.18 in 10.0 mi ESE 5.8 mph - N/A   Clear
10:15 AM 75.2 °F 26.6 °F 17% 30.18 in 7.0 mi ESE 8.1 mph - N/A   Clear
10:35 AM 75.2 °F 28.4 °F 18% 30.18 in 10.0 mi ESE 8.1 mph - N/A   Clear
10:55 AM 75.2 °F 28.4 °F 18% 30.17 in 10.0 mi SE 6.9 mph - N/A   Clear
11:15 AM 75.2 °F 26.6 °F 17% 30.17 in 10.0 mi East 4.6 mph - N/A   Clear
11:35 AM 77.0 °F 26.6 °F 16% 30.16 in 10.0 mi East 3.5 mph - N/A   Clear
11:55 AM 77.0 °F 23.0 °F 13% 30.16 in 10.0 mi West 3.5 mph - N/A   Clear
12:15 PM 78.8 °F 24.8 °F 14% 30.14 in 10.0 mi West 3.5 mph - N/A   Clear
12:35 PM 78.8 °F 23.0 °F 13% 30.14 in 10.0 mi Calm Calm - N/A   Clear
12:55 PM 78.8 °F 23.0 °F 13% 30.13 in 10.0 mi SSW 4.6 mph - N/A   Clear
1:15 PM 80.6 °F 26.6 °F 14% 30.12 in 10.0 mi SSE 3.5 mph - N/A   Clear
1:35 PM 80.6 °F 26.6 °F 14% 30.11 in 10.0 mi SW 6.9 mph - N/A   Clear
1:55 PM 80.6 °F 26.6 °F 14% 30.10 in 10.0 mi South 3.5 mph - N/A   Clear
2:15 PM 80.6 °F 26.6 °F 14% 30.09 in 10.0 mi SSW 5.8 mph - N/A   Clear
2:35 PM 80.6 °F 26.6 °F 14% 30.09 in 10.0 mi South 6.9 mph - N/A   Clear
2:55 PM 82.4 °F 26.6 °F 13% 30.08 in 10.0 mi SSE 5.8 mph - N/A   Clear
3:15 PM 80.6 °F 26.6 °F 14% 30.08 in 10.0 mi SW 4.6 mph - N/A   Clear
3:55 PM 80.6 °F 26.6 °F 14% 30.07 in 10.0 mi SSW 4.6 mph - N/A   Clear
4:15 PM 80.6 °F 26.6 °F 14% 30.07 in 10.0 mi SSW 6.9 mph - N/A   Clear
4:35 PM 80.6 °F 24.8 °F 13% 30.07 in 10.0 mi SSW 5.8 mph - N/A   Clear
5:15 PM 78.8 °F 24.8 °F 14% 30.07 in 10.0 mi SW 6.9 mph - N/A   Clear
5:35 PM 77.0 °F 24.8 °F 14% 30.07 in 10.0 mi SSW 4.6 mph - N/A   Clear
5:55 PM 75.2 °F 26.6 °F 17% 30.07 in 10.0 mi SW 3.5 mph - N/A   Clear
6:15 PM 73.4 °F 26.6 °F 18% 30.08 in 10.0 mi SW 4.6 mph - N/A   Clear
6:35 PM 73.4 °F 26.6 °F 18% 30.08 in 10.0 mi SW 3.5 mph - N/A   Clear
6:55 PM 71.6 °F 26.6 °F 19% 30.09 in 10.0 mi South 3.5 mph - N/A   Clear
7:15 PM 69.8 °F 26.6 °F 20% 30.09 in 10.0 mi ENE 4.6 mph - N/A   Clear
7:35 PM 69.8 °F 26.6 °F 20% 30.10 in 10.0 mi ENE 5.8 mph - N/A   Clear
7:55 PM 69.8 °F 26.6 °F 20% 30.10 in 10.0 mi East 3.5 mph - N/A   Clear
8:15 PM 69.8 °F 26.6 °F 20% 30.10 in 10.0 mi Calm Calm - N/A   Clear
8:35 PM 62.6 °F 30.2 °F 30% 30.11 in 10.0 mi WNW 3.5 mph - N/A   Clear
8:55 PM 62.6 °F 28.4 °F 27% 30.11 in 10.0 mi WNW 3.5 mph - N/A   Clear
9:15 PM 62.6 °F 28.4 °F 27% 30.11 in 10.0 mi WNW 4.6 mph - N/A   Clear
9:35 PM 62.6 °F 28.4 °F 27% 30.11 in 10.0 mi Calm Calm - N/A   Clear
9:55 PM 60.8 °F 28.4 °F 29% 30.12 in 10.0 mi WNW 4.6 mph - N/A   Clear
10:15 PM 59.0 °F 28.4 °F 31% 30.12 in 10.0 mi WNW 3.5 mph - N/A   Clear
10:35 PM 59.0 °F 28.4 °F 31% 30.12 in 10.0 mi WNW 4.6 mph - N/A   Clear
10:55 PM 60.8 °F 28.4 °F 29% 30.12 in 10.0 mi WNW 3.5 mph - N/A   Clear
11:15 PM 59.0 °F 28.4 °F 31% 30.12 in 10.0 mi WNW 3.5 mph - N/A   Clear
11:35 PM 59.0 °F 28.4 °F 31% 30.12 in 10.0 mi NW 3.5 mph - N/A   Clear
11:55 PM 57.2 °F 28.4 °F 33% 30.12 in 10.0 mi WNW 4.6 mph - N/A   Clear